{"data":{"norad_id":64532,"intl_designator":"2025-135E","name":"TRANSPORTER-14 OBJECT E","alt_names":[],"object_type":"PAYLOAD","status":"ACTIVE","operator":null,"country":"TBD","launch_date":"2025-06-23","launch_site_code":"AFWTR","launch_vehicle":null,"mission":null,"orbit_class":"UNKNOWN","rcs_meters":null,"size_class":null,"mass_kg":null,"dimensions":null,"purposes":[],"wikipedia_slug":null,"has_3d_model":false,"image_url":null,"decayed_at":null,"tle_current":{"epoch":"2026-09-21T20:15:56.477088Z","epoch_age_seconds":65409,"freshness":"FRESH","line1":"1 64532U 25135E   26264.84440367  .00007909  00000+0  29216-3 0  9999","line2":"2 64532  97.4813  21.2536 0004335 169.6577 190.4752 15.28006125 69675","mean_motion":15.28006125,"eccentricity":0.0004335,"inclination_deg":97.4813,"raan_deg":21.2536,"arg_perigee_deg":169.6577,"mean_anomaly_deg":190.4752,"bstar":0.00029216,"rev_number":6967,"period_min":94.240459932711,"perigee_km":478.79964986572,"apogee_km":484.74719220076,"semimajor_km":6859.9104210332,"source":"CELESTRAK","updated_at":"2026-09-22T09:00:29.815844Z"}}}